VE3BQM-WX Weather Reports


time (UTC)temp
C
wind
direction
speed
KPH
gust
KPH
rain 1hr
cm
rain 24hr
cm
rain mn
cm
humidity
%
barometer
mb
20260506061804 5 0 0.0 0.0 0.00 0.05 0.00 86 981.0
20260506060905 5 0 0.0 0.0 0.00 0.05 0.00 85 981.1
20260506050904 5 0 0.0 0.0 0.00 0.43 0.00 84 981.3
20260506044506 5 0 0.0 0.0 0.00 0.43 0.00 83 981.4
20260506043605 4 0 0.0 0.0 0.00 0.43 0.00 83 981.3
20260506042705 4 0 0.0 0.0 0.00 0.43 0.00 82 981.1
20260506041803 4 0 0.0 0.0 0.00 0.43 0.00 81 981.0
20260506041117 4 0 0.0 0.0 0.00 0.43 0.00 81 981.1
20260506040005 4 0 0.0 0.0 0.00 0.43 0.00 80 981.0
20260506035616 4 0 0.0 0.0 0.00 0.43 0.00 80 981.0
20260506034505 5 0 0.0 0.0 0.00 0.43 0.00 79 981.2
20260506033605 5 0 0.0 0.0 0.00 0.43 0.00 78 981.1
20260506032703 5 0 0.0 0.0 0.00 0.43 0.00 77 981.0
20260506031805 5 0 0.0 0.0 0.00 0.43 0.00 77 981.0
20260506030905 5 0 0.0 0.0 0.00 0.43 0.00 76 981.1
20260506030005 5 0 0.0 0.0 0.00 0.43 0.00 75 981.2
20260506025616 5 0 0.0 0.0 0.00 0.43 0.00 75 981.0
20260506024505 5 67 0.0 3.2 0.00 0.43 0.00 75 981.0
20260506023605 5 67 0.0 6.4 0.00 0.43 0.00 74 981.0
20260506022706 5 95 0.0 3.2 0.00 0.43 0.00 75 981.0
20260506021803 5 105 0.0 6.4 0.00 0.43 0.00 74 981.0
20260506020904 5 360 0.0 3.2 0.00 0.43 0.00 73 981.0
20260506020006 6 360 0.0 6.4 0.00 0.43 0.00 72 981.1
20260506015617 5 360 0.0 6.4 0.00 0.43 0.00 72 981.3
20260506014714 5 22 0.0 3.2 0.00 0.43 0.00 71 981.1
20260506013608 6 0 0.0 0.0 0.00 0.43 0.00 70 981.0
20260506012919 5 0 0.0 0.0 0.00 0.43 0.00 69 981.0
20260506011806 5 0 0.0 0.0 0.00 0.43 0.00 68 980.8
20260506010903 6 0 0.0 0.0 0.00 0.43 0.00 66 980.6
20260506010004 6 225 0.0 6.4 0.00 0.43 0.00 64 980.4
20260506005405 6 204 0.0 6.4 0.00 0.43 0.00 64 980.3
20260506004720 6 127 1.6 6.4 0.00 0.43 0.00 62 980.3
20260506003603 6 123 0.0 3.2 0.00 0.43 0.00 61 980.0
20260506002706 6 124 1.6 4.8 0.00 0.43 0.00 60 980.2
20260506001805 6 135 0.0 11.3 0.00 0.43 0.00 60 980.0
20260506001114 6 133 1.6 12.9 0.00 0.43 0.00 59 979.9
20260506000006 7 130 3.2 12.9 0.00 0.43 0.00 58 979.8
20260505235404 7 130 4.8 12.9 0.00 0.43 0.00 57 979.8
20260505234503 7 127 4.8 12.9 0.00 0.43 0.00 57 979.6
20260505233603 7 131 6.4 12.9 0.00 0.43 0.00 58 979.7
20260505232705 7 127 4.8 12.9 0.00 0.43 0.00 58 979.6
20260505232013 7 131 4.8 12.9 0.00 0.43 0.00 58 979.7
20260505230905 8 124 3.2 12.9 0.00 0.43 0.00 59 979.7
20260505230004 9 129 3.2 14.5 0.00 0.43 0.00 59 979.6
20260505225405 10 130 3.2 9.7 0.00 0.43 0.43 58 979.6
20260505224505 11 107 3.2 11.3 0.00 0.43 0.43 55 979.7
20260505223606 12 77 3.2 6.4 0.00 0.43 0.43 50 979.5
20260505222703 12 93 0.0 8.0 0.00 0.43 0.43 52 979.7
20260505222013 13 350 0.0 8.0 0.00 0.43 0.43 50 979.8
20260505221115 12 261 4.8 11.3 0.00 0.43 0.43 48 979.8
20260505220213 11 66 6.4 11.3 0.00 0.43 0.43 50 979.8
20260505215405 11 46 3.2 9.7 0.00 0.43 0.43 51 979.7
20260505214717 11 44 3.2 9.7 0.00 0.43 0.43 50 979.6
20260505213608 12 320 3.2 12.9 0.00 0.43 0.43 50 979.7
20260505212705 12 74 3.2 14.5 0.00 0.43 0.43 49 979.7
20260505211803 12 19 4.8 16.1 0.00 0.43 0.43 49 979.6
20260505211116 12 334 1.6 9.7 0.00 0.43 0.43 51 979.5
20260505210003 12 9 11.3 16.1 0.00 0.43 0.43 48 979.6
20260505205615 12 346 4.8 12.9 0.00 0.43 0.43 48 979.3
20260505204506 12 113 1.6 12.9 0.00 0.43 0.43 50 979.3
20260505203605 13 356 3.2 16.1 0.00 0.43 0.43 48 979.3
20260505202706 13 69 3.2 17.7 0.00 0.43 0.43 46 979.2
20260505201805 13 94 3.2 17.7 0.00 0.43 0.43 47 979.1
20260505200903 13 100 3.2 16.1 0.00 0.43 0.43 46 979.3
20260505200005 13 308 4.8 24.1 0.00 0.43 0.43 47 979.1
20260505195616 13 294 3.2 24.1 0.00 0.43 0.43 48 979.1
20260505194503 13 319 9.7 24.1 0.00 0.43 0.43 44 978.8
20260505193608 13 320 6.4 16.1 0.00 0.43 0.43 44 978.8
20260505192706 13 344 1.6 12.9 0.00 0.43 0.43 46 978.9
20260505191806 13 90 4.8 14.5 0.00 0.43 0.43 47 978.9
20260505190905 14 336 3.2 17.7 0.00 0.43 0.43 46 979.0
20260505190005 13 20 11.3 17.7 0.00 0.43 0.43 45 978.9
20260505185405 13 70 6.4 17.7 0.00 0.43 0.43 49 978.8
20260505184504 12 90 4.8 16.1 0.00 0.43 0.43 45 978.5
20260505183605 12 308 6.4 22.5 0.00 0.43 0.43 45 978.8
20260505182703 12 302 8.0 22.5 0.00 0.43 0.43 48 978.6
20260505181803 12 28 6.4 17.7 0.00 0.43 0.43 49 978.7
20260505180905 12 342 3.2 14.5 0.00 0.43 0.43 53 978.4
20260505180005 11 46 3.2 24.1 0.00 0.43 0.43 53 978.5
20260505175406 11 37 11.3 24.1 0.00 0.43 0.43 54 978.7
20260505174506 12 295 4.8 22.5 0.00 0.43 0.43 55 978.3
20260505173603 12 343 4.8 14.5 0.00 0.43 0.43 54 978.3
20260505172704 11 63 6.4 14.5 0.00 0.43 0.43 56 978.2
20260505172016 11 20 4.8 12.9 0.00 0.43 0.43 59 978.3
20260505170906 9 324 4.8 16.1 0.00 0.43 0.43 65 978.2
20260505170005 8 333 6.4 20.9 0.00 0.43 0.43 65 978.3
20260505165403 8 301 3.2 20.9 0.00 0.43 0.43 66 978.3
20260505164505 8 315 6.4 12.9 0.00 0.43 0.43 66 978.1
20260505163605 8 47 3.2 16.1 0.00 0.43 0.43 66 978.0
20260505162704 9 328 6.4 14.5 0.00 0.43 0.43 65 978.0
20260505161806 9 21 4.8 16.1 0.00 0.43 0.43 65 977.9
20260505161119 9 280 3.2 16.1 0.00 0.43 0.43 63 977.9
20260505152703 11 76 4.8 14.5 0.00 0.43 0.43 55 977.9
20260505151805 12 166 3.2 20.9 0.00 0.43 0.43 57 977.1
20260505151120 11 343 9.7 20.9 0.00 0.43 0.43 58 977.0
20260505150217 11 4 1.6 17.7 0.00 0.43 0.43 59 977.0
20260505124505 7 249 3.2 12.9 0.00 0.43 0.43 87 975.1
20260505123605 7 310 3.2 11.3 0.00 0.43 0.43 89 974.8
20260505122703 7 292 3.2 8.0 0.00 0.43 0.43 90 974.6
20260505121805 7 304 1.6 9.7 0.00 0.43 0.43 91 974.4
20260505120906 7 40 4.8 11.3 0.00 0.43 0.43 91 974.4
20260505120004 7 309 3.2 11.3 0.00 0.43 0.43 93 974.3
20260505115405 7 289 1.6 9.7 0.00 0.43 0.43 96 974.2
20260505114503 7 310 4.8 9.7 0.00 0.43 0.43 96 973.8
20260505113603 7 289 1.6 8.0 0.00 0.43 0.43 97 973.8
20260505112913 7 307 4.8 8.0 0.00 0.43 0.43 97 973.5
20260505111806 7 251 0.0 6.4 0.00 0.43 0.43 99 973.1
20260505110904 7 299 0.0 6.4 0.00 0.43 0.43 99 972.9
20260505101803 7 226 3.2 6.4 0.00 0.43 0.43 99 972.0
20260505100905 7 316 0.0 6.4 0.00 0.43 0.43 99 972.0
20260505100005 7 317 0.0 6.4 0.00 0.43 0.43 99 972.0
20260505095403 7 331 0.0 8.0 0.00 0.43 0.43 99 971.8
20260505094505 7 333 1.6 8.0 0.00 0.43 0.43 99 971.7
20260505093817 7 307 0.0 6.4 0.00 0.43 0.43 99 971.3
20260505092705 7 27 3.2 9.7 0.00 0.43 0.43 99 971.2
20260505091806 7 345 1.6 12.9 0.00 0.43 0.43 99 971.2
20260505090903 7 85 1.6 6.4 0.00 0.43 0.43 99 970.9
20260505090006 8 325 3.2 11.3 0.00 0.43 0.43 99 970.7
20260505085618 8 319 4.8 12.9 0.00 0.43 0.43 99 970.5
20260505084506 8 303 1.6 8.0 0.00 0.43 0.43 99 970.5
20260505083604 8 336 0.0 9.7 0.00 0.43 0.43 99 970.3
20260505082705 9 330 0.0 6.4 0.00 0.43 0.43 99 970.3
20260505081804 10 269 3.2 8.0 0.00 0.43 0.43 99 970.2
20260505080904 10 310 3.2 9.7 0.00 0.43 0.43 99 969.9
20260505080007 10 293 3.2 11.3 0.03 0.43 0.43 99 970.1
20260505075405 11 316 4.8 8.0 0.05 0.43 0.43 99 970.0
20260505074503 11 330 3.2 12.9 0.05 0.43 0.43 99 970.1
20260505073606 11 329 1.6 12.9 0.05 0.43 0.43 99 970.1
20260505072703 11 354 0.0 4.8 0.05 0.43 0.43 99 970.0
20260505071805 11 331 3.2 14.5 0.05 0.43 0.43 99 970.1
20260505070906 11 340 8.0 14.5 0.05 0.43 0.43 99 970.6